Wind_Speed
10 11 12 13 12 14 17 22 28 32 35 33 28 23 18 15 18 17 14 13 10 10 10 8 8 6 5 5 4 3 2 2 3 3 3 3 3 3 3 4 5 5 6 6 6 6 6 6 6 6 6 5 5 5 4 4 4 5 5 6 6 8 9 9 10 10 10 11 11 12 12 13 13 14 15 15 15 15 16 16 17 17 17 17 17
10 11 12 12 12 13 15 19 23 29 33 33 29 25 19 18 22 22 18 16 15 14 14 12 11 10 9 9 8 7 6 5 6 6 6 7 7 6 5 5 5 5 6 6 7 7 7 7 7 7 8 8 8 7 7 7 7 7 7 7 8 8 9 10 11 12 12 12 12 13 13 14 15 15 16 17 18 19 19 20 20 20 20 20 20
9 10 11 12 12 12 15 17 19 23 29 31 30 28 23 22 25 25 20 19 18 18 16 15 13 12 11 11 11 10 9 8 8 8 9 9 10 10 9 8 7 7 7 7 8 9 9 10 10 10 10 11 10 10 10 9 9 9 9 9 10 10 10 11 12 13 15 15 15 15 15 15 15 16 17 17 18 19 19 20 21 21 21 21 21
9 9 10 12 12 13 14 15 16 18 23 27 29 29 27 24 25 26 24 23 22 20 18 17 15 15 14 13 13 14 14 12 11 11 12 12 13 13 12 11 10 10 10 10 10 11 11 12 12 13 13 14 13 13 12 12 12 11 11 11 11 11 12 13 13 14 15 17 18 18 18 18 18 18 19 19 20 20 21 21 21 22 23 23 23
10 9 9 11 13 13 13 14 14 15 19 24 27 28 27 25 26 28 28 27 25 23 21 20 19 19 18 17 16 17 17 16 15 15 15 14 15 16 16 15 14 13 13 13 14 14 13 13 13 14 15 16 16 16 16 16 15 15 15 14 14 14 14 15 16 16 17 18 19 20 21 21 22 22 22 22 22 22 23 23 24 24 24 25 26
11 11 11 12 14 14 13 14 14 14 16 20 23 26 27 26 26 28 30 30 26 24 24 23 23 23 22 19 17 17 19 19 19 18 16 16 18 18 16 17 17 16 15 16 16 17 17 16 16 16 16 17 18 19 19 20 20 19 19 18 18 17 17 17 17 18 19 20 21 22 23 24 25 26 26 25 24 24 24 25 26 26 26 26 27
13 13 13 14 15 15 15 14 14 15 17 19 21 25 27 27 27 28 31 31 28 27 26 26 27 26 23 19 17 17 18 19 19 19 17 16 17 16 15 17 18 18 18 18 17 17 18 18 18 18 17 18 19 20 21 22 22 22 22 22 22 22 21 20 20 20 20 21 22 23 24 25 26 28 28 28 28 27 27 26 27 27 28 29 29
15 15 15 16 17 17 16 16 15 16 18 20 20 22 25 27 28 29 30 30 31 29 27 29 31 28 22 18 17 16 17 16 16 16 16 15 16 16 17 20 21 22 22 21 20 19 19 19 20 20 19 20 21 22 23 24 25 25 25 25 25 24 24 24 23 23 23 23 23 23 24 25 26 27 28 29 29 30 30 30 29 28 28 29 30
16 16 17 18 18 18 18 17 17 17 19 20 20 19 21 25 28 29 29 29 29 27 25 27 27 24 20 18 16 16 16 16 15 14 13 13 14 16 18 19 20 21 22 23 23 22 21 21 21 21 21 21 22 23 24 25 25 26 27 27 27 27 27 27 27 26 25 25 26 26 27 27 27 27 27 28 29 30 30 31 31 30 29 29 29
16 17 18 18 18 18 18 18 18 18 18 19 19 18 20 23 25 27 26 25 23 21 22 21 19 18 18 17 16 16 15 15 15 14 13 14 15 16 17 17 17 17 19 20 21 22 21 22 23 23 22 22 23 24 25 26 26 27 27 28 29 30 31 32 33 32 30 28 28 29 29 29 29 29 29 29 30 31 31 31 31 31 31 30 29
16 17 18 18 18 18 17 17 18 18 17 18 19 19 20 22 24 24 24 23 20 18 18 17 15 15 15 15 15 16 16 15 15 15 15 15 16 17 18 18 18 18 19 19 19 20 21 22 23 24 24 25 25 26 27 28 28 28 29 30 32 34 34 35 35 36 35 33 31 31 31 30 31 32 32 32 32 33 33 34 34 33 33 33 31
16 17 18 19 19 18 18 18 18 18 18 18 19 20 21 22 23 23 23 21 19 17 16 15 15 15 15 16 17 18 18 17 17 17 18 19 20 20 20 21 21 21 22 21 21 22 22 23 24 24 25 25 26 28 29 29 30 31 32 33 34 33 35 37 37 37 38 37 34 32 32 32 33 34 34 34 35 35 36 37 37 37 37 37 36
17 16 17 18 19 19 19 20 20 20 20 20 20 20 21 22 22 22 22 21 19 18 17 16 17 17 18 18 19 19 18 19 19 21 22 23 23 23 23 24 24 24 24 24 24 24 25 25 25 26 26 26 27 29 30 31 32 32 32 33 32 31 34 39 40 40 39 37 35 34 34 35 35 35 36 37 37 38 38 38 39 40 40 40 39
19 18 18 19 20 20 20 21 21 21 22 21 21 22 22 22 23 23 22 22 21 20 19 18 19 19 19 19 20 20 20 21 22 24 24 25 25 25 25 25 25 25 26 26 26 26 26 26 27 27 28 28 29 30 31 32 33 33 33 33 33 34 36 39 40 41 40 38 36 37 37 37 37 36 37 38 38 39 40 40 40 41 41 41 41
23 22 21 21 22 22 21 21 22 22 23 22 22 23 24 24 25 24 24 23 22 22 22 21 21 21 22 22 22 22 22 23 24 24 25 25 26 26 26 26 26 26 27 27 28 28 28 28 28 28 28 28 29 29 30 31 32 33 33 34 35 36 37 39 41 42 41 39 38 38 38 38 38 38 38 38 39 40 40 41 41 42 42 42 41
24 23 23 23 24 24 23 23 23 24 24 23 23 24 25 26 26 26 25 24 24 23 23 23 23 23 23 22 22 22 23 23 23 24 24 25 26 26 26 27 27 27 27 27 28 28 28 28 28 28 29 29 30 30 31 31 32 33 34 35 36 37 39 39 39 39 39 38 38 38 38 39 39 40 40 40 41 42 42 42 43 43 44 44 43
26 25 24 25 25 25 25 24 24 25 25 24 25 25 26 26 26 26 26 25 25 24 24 23 23 23 23 22 22 23 23 23 24 24 25 25 26 26 27 27 27 27 27 27 27 27 28 28 28 28 28 29 30 31 31 32 33 34 34 36 37 38 38 37 35 36 37 38 38 39 39 40 41 42 43 44 44 45 45 45 45 45 46 46 45
29 28 28 27 25 25 26 25 25 26 25 25 26 25 25 25 25 25 25 25 25 25 24 24 24 24 24 23 23 23 23 23 23 23 24 25 25 26 26 27 27 27 27 27 27 27 27 27 27 27 27 27 28 29 30 31 31 32 33 35 36 36 36 35 35 37 38 39 40 41 41 42 42 43 44 45 46 46 47 48 48 48 48 48 48
29 30 31 29 26 24 25 24 24 25 26 27 27 27 26 26 26 26 26 26 26 26 26 26 26 26 26 25 25 25 24 24 24 24 24 25 26 26 27 28 28 28 29 29 28 28 28 28 29 29 29 29 30 30 31 31 32 33 34 35 36 37 37 37 38 39 40 41 42 43 43 44 45 45 45 46 46 47 47 48 48 49 49 49 49
28 29 29 28 25 25 25 24 24 24 26 27 27 27 27 27 28 28 28 27 27 27 27 28 28 28 28 28 28 27 27 27 27 27 27 28 28 29 29 29 30 30 31 31 31 31 32 32 32 32 33 33 33 34 34 35 36 36 37 38 39 39 40 40 41 41 42 42 43 43 44 44 44 45 45 45 45 45 46 47 48 48 49 49 49
29 29 29 29 28 27 28 27 28 29 29 29 29 30 30 30 29 28 28 27 27 28 28 29 29 30 30 29 29 29 29 29 29 29 30 31 31 32 32 31 32 32 32 32 32 32 32 33 33 33 34 34 35 36 36 37 38 39 39 40 40 41 42 42 42 43 43 43 43 43 43 43 43 43 43 43 44 44 45 46 46 46 47 48 48
31 31 31 32 31 30 30 29 30 31 31 31 32 33 33 34 33 31 29 29 29 29 29 30 30 31 31 31 31 30 30 30 31 31 32 33 33 34 33 33 33 33 33 32 32 32 32 32 32 33 33 34 35 36 37 39 40 40 40 40 41 42 43 43 43 43 43 43 43 42 42 42 42 42 43 43 44 44 44 44 44 44 45 46 47
33 34 34 34 33 32 32 31 30 30 29 29 29 28 29 31 33 32 31 31 31 31 31 32 33 34 34 33 33 32 32 32 32 33 34 34 34 34 34 34 35 35 34 34 33 33 33 33 33 34 34 35 36 37 38 39 40 41 41 42 42 43 43 43 43 43 43 43 42 42 41 42 42 43 44 44 44 44 44 44 43 44 45 45 46
37 36 36 36 36 35 34 33 31 30 28 28 28 28 28 28 29 30 29 29 30 31 31 32 33 34 35 34 33 33 33 33 34 34 34 34 34 34 34 35 35 35 36 36 36 36 36 36 36 36 36 36 37 37 38 39 40 41 41 42 42 42 43 43 43 42 42 42 42 42 42 43 44 44 45 45 44 44 44 44 44 44 45 45 46
40 40 39 39 38 38 37 35 34 33 31 31 31 31 31 31 30 30 30 30 30 31 33 33 33 33 33 33 33 33 33 34 34 34 34 33 33 34 35 36 36 36 37 38 38 39 39 38 37 37 36 36 36 36 37 38 38 39 40 40 41 41 41 40 40 40 40 40 41 42 43 43 44 44 44 44 44 44 44 45 45 45 45 46 46
46 45 43 42 41 40 40 38 37 36 36 36 35 35 34 33 32 31 31 31 32 32 33 34 34 33 33 32 32 33 33 34 34 34 34 33 33 34 35 35 36 36 37 38 38 38 38 37 36 36 35 35 35 36 36 36 37 37 37 37 37 37 36 36 37 38 39 40 41 41 42 42 42 42 43 43 43 44 44 45 45 45 45 46 47
50 49 48 46 44 43 42 40 39 39 39 39 39 38 37 35 34 33 32 32 33 33 32 32 31 31 31 31 31 32 32 33 34 34 33 34 34 35 35 34 34 34 34 35 36 36 36 35 35 34 35 35 35 34 34 34 33 33 32 31 31 31 32 34 35 36 37 38 39 39 40 40 41 41 42 42 43 44 45 46 46 46 47 47 48
46 47 47 47 47 46 45 43 41 40 40 41 41 41 40 39 37 36 34 33 33 34 33 31 30 29 29 30 30 30 30 32 33 33 33 34 34 33 32 32 31 32 32 33 33 34 34 34 34 34 34 34 33 32 30 29 28 27 26 27 28 29 31 32 33 35 36 37 38 38 39 40 40 41 42 43 44 44 45 46 47 47 48 48 48
44 44 43 44 45 46 46 46 45 43 42 42 42 42 42 41 39 37 35 35 36 36 35 32 31 31 30 30 30 30 29 30 32 33 33 33 31 29 29 29 29 30 31 31 31 32 33 33 33 32 32 30 29 26 24 22 22 23 24 26 27 29 30 31 32 33 34 36 37 38 39 40 41 42 43 43 43 44 44 45 45 45 45 45 45
47 45 44 43 43 43 44 45 46 46 45 44 44 44 42 41 39 38 37 37 36 34 33 31 31 32 32 32 31 30 30 31 31 31 31 30 29 28 29 29 29 29 29 29 30 30 31 31 30 28 26 23 21 20 19 20 22 24 25 27 28 29 30 31 32 33 34 36 37 38 40 41 41 42 42 42 42 41 41 40 40 41 41 40 40
48 47 46 45 44 44 43 43 44 45 46 46 46 45 44 41 39 39 39 38 35 32 31 32 33 34 34 32 29 29 30 31 31 31 30 30 29 29 29 29 28 28 28 29 29 29 28 26 24 20 17 16 17 18 20 22 23 24 25 26 27 28 29 30 31 33 34 36 37 38 39 39 40 40 40 39 38 37 34 33 33 33 33 33 32
48 48 47 46 46 45 45 44 43 43 43 44 45 45 45 44 42 39 37 35 33 32 32 33 34 35 35 31 27 27 28 29 30 31 30 29 28 27 26 26 26 26 27 27 26 23 21 18 15 13 14 16 18 19 21 22 22 23 24 25 26 27 29 30 31 33 34 35 35 35 36 37 38 37 35 34 33 30 27 25 25 25 25 25 24
46 46 46 46 46 46 46 46 45 44 43 43 44 44 44 44 43 40 37 34 31 30 31 33 34 35 34 30 26 25 27 27 28 28 27 26 24 23 23 23 24 24 23 21 17 14 12 11 12 14 16 17 18 19 20 21 21 22 23 23 25 26 28 29 30 31 32 33 34 34 35 35 34 32 30 28 25 22 20 20 20 21 22 21 21
45 45 44 44 44 45 46 47 46 46 45 45 44 43 42 40 38 36 34 32 30 29 30 32 33 33 31 28 25 25 26 26 25 25 24 22 21 20 21 22 22 20 17 14 12 10 10 12 14 16 17 17 17 18 19 20 20 21 22 23 24 25 27 28 28 29 30 31 33 34 33 31 30 27 24 21 18 17 17 19 20 21 22 22 21
43 44 44 43 43 43 43 45 46 46 46 45 45 43 41 38 36 34 34 32 30 30 31 31 31 30 28 27 25 24 23 23 23 23 22 20 18 18 19 20 20 18 15 13 11 11 12 14 16 16 16 16 16 17 17 18 19 20 21 22 23 24 25 26 26 28 30 32 33 33 31 28 26 24 20 16 15 16 17 19 21 23 24 25 23
39 41 42 42 43 42 41 42 43 43 43 43 44 44 43 41 38 37 36 34 33 33 33 32 30 29 28 26 25 24 23 23 23 22 20 18 16 17 18 20 20 18 16 13 13 13 14 15 15 15 14 14 14 15 17 17 18 19 20 21 22 23 24 25 27 29 30 31 31 30 28 26 23 20 17 15 15 17 19 20 22 24 25 25 24
32 36 38 39 40 40 40 40 41 40 39 40 41 43 43 43 41 40 38 37 37 37 36 33 31 29 27 24 24 24 23 23 22 21 18 16 16 17 19 20 20 18 16 15 14 14 14 14 13 12 12 12 13 15 15 16 16 17 19 20 22 22 24 25 27 29 31 31 29 27 26 24 21 18 17 16 17 19 21 22 23 25 25 24 23
25 28 31 33 34 36 37 38 39 39 37 36 36 37 37 37 38 38 37 37 37 36 35 32 30 27 24 23 23 23 23 23 22 19 17 16 17 17 18 18 17 17 16 16 15 14 13 12 11 10 10 11 12 13 14 14 15 16 17 18 20 22 23 24 27 29 30 29 27 24 23 23 21 19 18 18 20 22 23 24 25 26 24 21 20
18 19 23 26 28 30 32 34 36 36 35 33 32 31 30 30 30 30 30 31 31 32 31 30 28 25 23 22 23 23 24 24 22 18 16 16 16 16 16 16 17 17 17 16 14 13 11 9 8 9 10 11 11 11 11 12 14 15 16 17 19 21 22 23 26 28 29 27 25 23 22 22 22 20 19 20 22 23 23 24 25 24 20 16 17
11 12 16 19 21 23 25 29 33 33 31 28 27 26 26 26 25 25 26 27 27 27 26 25 24 22 22 22 22 21 20 18 16 14 13 14 15 16 17 18 18 17 15 13 11 9 8 7 7 8 9 9 9 8 9 11 13 13 15 18 19 20 21 23 25 27 28 26 24 22 22 23 23 21 21 21 22 22 22 22 22 20 16 16 18
6 8 11 13 14 16 18 22 27 27 25 24 23 23 24 24 24 24 24 23 23 23 22 22 21 21 22 23 22 19 16 14 13 12 12 14 15 17 18 18 17 15 12 9 8 7 6 6 7 8 7 6 6 7 8 10 12 13 15 17 19 20 20 22 24 26 27 26 24 22 21 22 22 22 22 22 21 20 20 21 19 16 16 18 21
8 2 4 6 7 9 12 17 21 22 21 20 20 21 22 23 24 23 21 20 20 19 19 20 22 22 22 22 21 19 17 15 14 13 14 15 16 18 18 16 14 11 9 7 6 5 6 7 7 6 5 4 5 6 8 10 11 13 15 17 19 20 20 21 23 25 26 26 24 22 20 20 21 21 22 21 20 19 19 18 16 15 17 21 23
15 10 7 6 6 7 11 15 17 17 17 16 17 18 19 21 21 19 18 18 18 18 19 21 22 21 20 19 18 18 18 17 16 15 15 16 16 16 14 12 10 9 7 5 5 7 8 8 7 4 3 3 5 6 8 9 11 13 15 17 19 20 20 21 21 23 24 25 23 22 21 20 19 19 20 20 19 18 17 15 14 14 18 21 22
16 14 11 9 9 10 12 14 15 16 15 14 14 16 17 18 18 18 18 18 17 17 19 19 18 18 17 18 18 18 17 17 17 17 16 15 15 14 12 10 8 7 6 6 7 9 9 8 5 3 2 3 5 6 8 10 12 14 16 17 18 20 21 21 21 22 23 24 24 22 21 20 19 18 19 18 18 17 15 12 12 14 18 21 21
19 16 15 14 13 13 14 15 16 15 14 13 13 14 16 17 18 18 18 17 16 16 16 15 17 17 16 17 17 16 17 18 18 16 14 13 13 13 11 9 8 6 6 8 10 10 8 6 4 2 2 4 5 7 9 11 14 15 17 18 18 19 20 21 22 22 23 24 25 24 22 21 20 19 18 17 17 16 13 11 11 14 18 21 21
19 18 17 16 15 14 13 13 13 12 12 12 11 11 14 16 17 17 18 17 15 15 16 17 17 17 17 17 17 18 18 18 15 13 12 12 12 12 11 9 7 7 8 10 10 8 6 4 3 2 3 5 6 8 10 12 14 16 18 19 19 20 21 22 22 23 23 24 26 25 24 22 21 20 19 18 16 14 13 12 13 15 17 19 20
20 18 17 15 13 12 12 11 10 9 9 8 7 8 12 17 18 17 17 16 16 17 19 20 19 18 17 17 18 18 16 14 12 11 11 11 11 10 9 8 8 9 10 10 8 6 4 4 3 3 4 5 7 9 10 12 14 16 17 19 20 20 21 21 22 23 23 24 25 26 26 24 22 22 21 19 17 16 15 15 16 16 16 17 18
24 22 21 19 16 15 13 12 11 11 10 8 7 9 14 17 18 17 18 19 19 19 19 18 17 17 16 16 16 14 12 11 10 10 9 10 10 9 8 8 9 10 10 8 6 4 4 3 2 3 4 6 7 9 10 12 14 15 16 18 20 21 21 21 22 23 24 24 24 26 26 25 24 23 22 21 19 18 16 16 16 16 16 17 16
26 25 25 24 23 22 21 20 18 17 16 15 15 17 19 20 19 19 20 19 17 16 15 15 15 15 15 14 13 11 10 10 9 8 8 9 9 8 8 9 9 9 7 5 4 3 3 2 3 4 5 6 7 9 10 12 13 14 15 17 18 20 21 22 22 23 24 24 24 25 26 26 25 24 23 22 21 20 18 16 16 16 15 16 16
21 21 20 20 20 21 21 21 21 20 20 19 19 19 19 18 17 15 14 13 13 13 13 13 13 13 12 11 10 9 9 9 8 7 8 8 8 8 9 9 8 7 5 3 3 2 2 3 4 5 6 7 8 9 10 11 12 13 15 16 17 18 20 22 22 23 23 24 24 24 25 25 25 25 24 23 22 21 20 18 17 16 15 15 15
17 16 15 15 15 15 15 15 15 15 15 15 16 16 15 14 13 12 11 11 11 12 12 11 11 10 9 8 8 9 9 9 8 8 8 8 8 9 9 8 7 5 4 3 3 3 4 5 6 7 7 8 9 10 10 11 12 13 14 15 16 17 19 21 22 22 23 23 24 24 25 25 25 25 25 24 22 21 21 19 18 17 16 15 14
Wind_Direction
248 251 248 251 260 264 261 252 247 244 246 253 256 254 260 255 237 227 214 212 220 218 214 212 207 202 196 199 202 217 243 269 281 293 300 296 296 302 315 326 327 330 332 331 332 332 332 333 331 328 327 327 328 329 329 328 328 329 327 323 318 315 314 311 309 306 303 302 300 300 300 299 299 299 299 298 296 295 294 292 291 290 288 286 284
258 256 254 256 257 260 262 257 250 245 246 251 250 246 248 246 240 235 222 214 219 223 224 222 218 216 215 215 215 219 231 247 261 274 281 280 278 277 277 281 288 298 303 304 302 299 299 300 300 302 302 301 301 302 304 304 303 304 304 306 306 305 305 304 304 303 301 299 297 295 295 295 294 293 293 294 293 293 293 293 292 291 289 288 286
270 269 269 271 266 260 258 256 251 243 239 241 242 240 243 242 239 238 234 226 224 226 230 232 230 230 232 231 229 228 229 233 245 258 265 267 268 268 267 268 271 280 286 288 286 285 286 285 284 284 284 286 289 292 295 298 300 301 301 300 300 300 299 298 298 299 298 298 296 294 292 290 289 288 288 287 287 288 289 290 291 291 291 291 290
270 273 276 278 275 269 261 255 251 241 232 233 236 238 242 242 239 239 241 239 233 231 233 237 237 238 241 240 241 242 239 235 240 250 255 258 262 266 269 270 271 274 279 283 282 279 279 279 280 279 279 281 284 286 289 292 295 297 296 294 293 293 293 292 292 292 292 292 292 291 291 289 287 286 286 286 286 286 286 287 288 289 290 291 291
269 270 272 274 272 272 267 257 252 243 234 233 237 240 243 244 241 241 242 240 234 230 233 236 240 243 241 237 241 249 251 249 250 251 252 255 258 262 268 272 274 276 277 279 279 277 275 274 273 274 277 280 283 285 287 290 293 294 291 290 290 291 290 290 290 289 287 287 286 286 286 286 285 284 284 283 284 285 286 286 286 285 286 287 288
267 264 262 263 265 266 263 257 253 249 244 242 243 244 245 245 244 245 246 246 242 238 237 237 240 243 243 244 251 258 260 262 262 258 256 255 254 256 261 266 270 273 276 277 275 275 274 272 269 269 271 273 278 282 285 288 290 291 290 290 291 292 293 291 289 288 287 286 285 285 284 284 284 284 284 283 281 281 282 284 286 286 286 285 285
262 257 253 251 254 257 256 252 249 247 249 250 249 248 247 246 246 249 253 257 262 261 253 245 241 242 247 257 266 268 266 269 271 270 268 265 262 262 264 266 266 268 271 273 271 270 270 270 269 268 268 269 271 275 279 283 286 288 289 292 294 295 295 293 290 288 288 288 286 286 285 284 284 284 285 285 284 283 282 281 282 283 284 284 284
260 256 252 247 247 248 248 248 245 243 246 247 247 248 247 246 246 248 252 259 267 269 262 251 245 245 252 261 266 269 269 270 272 272 271 270 271 269 267 267 268 267 267 269 269 268 266 266 266 266 267 269 270 272 275 277 281 284 287 291 294 294 293 292 292 291 292 291 290 290 289 289 289 289 288 288 288 287 287 285 283 282 281 281 282
265 260 255 250 247 244 243 244 244 245 245 242 241 244 246 246 247 248 252 258 264 265 260 255 253 251 252 256 258 262 264 263 264 265 265 266 269 270 269 270 271 269 268 269 271 271 269 268 268 267 267 270 272 273 275 276 279 281 284 287 289 289 288 289 289 289 292 293 293 293 294 294 295 296 295 294 292 290 289 288 288 286 284 282 281
265 263 259 255 251 247 245 244 245 245 243 238 235 237 241 245 248 249 252 255 257 256 255 257 257 248 242 243 248 254 256 254 256 258 258 258 261 264 267 269 271 272 273 273 273 273 271 270 271 271 271 271 272 273 273 275 278 281 284 287 288 289 291 291 290 291 292 293 294 295 294 295 297 298 299 299 297 295 293 291 290 289 288 286 283
255 256 257 256 253 250 248 247 246 245 241 235 234 235 238 242 245 247 249 251 249 246 245 249 248 238 233 236 244 251 253 253 254 259 262 263 264 264 265 267 270 272 273 273 273 273 271 271 272 274 274 274 274 274 275 277 279 283 286 287 289 292 293 292 293 295 294 295 297 297 295 295 297 298 299 299 298 297 296 296 295 294 293 292 289
246 249 251 250 248 248 247 246 244 243 240 236 235 235 236 240 243 245 247 245 242 238 236 238 240 237 235 238 244 248 251 254 260 267 270 271 271 270 271 273 274 275 275 274 274 274 275 275 275 276 277 276 275 275 277 279 281 283 285 287 290 294 293 291 292 293 293 297 300 299 297 297 298 297 298 298 297 297 296 296 297 297 297 296 295
242 245 246 246 247 247 248 248 244 241 240 237 233 232 234 238 241 242 241 239 237 237 237 236 237 239 240 241 245 249 253 258 263 267 270 271 271 271 271 273 275 276 277 277 277 277 278 277 277 277 277 276 275 275 276 278 280 282 284 287 289 289 288 290 291 291 294 299 302 300 298 299 298 297 296 295 294 294 294 295 295 296 296 296 296
243 243 244 245 246 248 250 249 245 241 240 238 234 232 233 234 235 235 235 236 238 239 239 238 238 241 243 246 249 253 256 258 261 263 264 266 268 270 271 272 274 275 276 277 278 279 279 279 278 278 277 276 276 276 276 277 279 280 281 282 283 283 284 287 290 292 298 302 301 299 299 299 298 296 294 293 293 293 293 293 293 293 293 293 294
240 238 238 241 243 244 243 241 239 236 235 234 233 232 232 233 233 235 236 238 240 241 241 242 243 244 247 250 252 254 256 257 259 261 263 265 267 270 272 274 275 275 276 277 277 278 279 280 279 279 279 278 277 277 277 279 280 281 282 282 281 281 283 287 290 295 299 299 298 298 299 298 297 296 295 294 294 294 293 293 293 292 292 292 293
249 242 240 242 242 241 239 236 233 231 229 229 230 231 233 235 236 238 240 242 244 245 247 248 249 250 251 252 253 255 257 259 261 263 265 267 269 271 273 275 275 276 276 277 277 277 278 278 278 277 277 277 278 278 278 278 280 281 282 283 283 283 285 288 292 294 295 295 296 297 297 296 296 297 297 297 296 296 295 294 294 293 292 292 291
266 261 257 253 246 241 239 236 234 234 234 234 234 233 234 236 238 240 242 244 246 247 249 250 252 252 252 253 254 257 259 261 264 266 268 270 271 273 274 275 276 276 276 276 276 276 276 276 276 276 276 276 277 278 278 278 279 279 281 281 283 285 288 290 292 292 291 293 295 296 296 296 296 297 297 297 297 297 296 295 294 293 292 291 290
271 267 264 260 249 240 238 240 239 240 240 238 236 236 235 235 237 238 240 243 245 247 249 251 252 254 256 257 260 262 264 266 268 270 272 273 275 276 277 277 277 276 276 276 275 275 275 276 276 276 277 278 278 279 279 280 280 281 282 283 284 287 290 291 291 291 291 293 294 295 295 296 296 296 296 296 295 295 294 293 293 292 292 291 291
273 268 264 261 252 239 237 240 241 242 241 238 235 235 234 234 235 237 240 243 245 247 250 251 254 256 259 261 263 264 266 268 270 272 273 275 276 277 278 278 277 277 276 275 274 274 274 275 275 277 277 279 280 281 282 283 283 283 283 284 286 288 289 289 289 289 290 292 292 293 294 294 295 295 295 295 294 294 294 293 293 293 292 292 292
270 267 267 267 261 249 244 244 244 243 241 239 237 236 234 233 234 235 238 241 244 247 250 253 255 257 258 259 260 261 263 266 268 270 272 274 276 277 278 279 279 278 277 276 275 274 274 275 276 277 278 279 280 281 282 282 282 282 282 283 285 286 286 286 286 287 288 289 289 290 291 291 292 292 292 292 292 292 293 293 293 293 293 292 292
264 264 267 272 271 264 258 256 255 252 248 246 248 247 243 239 237 238 241 243 245 247 250 253 256 257 258 258 259 260 262 264 267 270 272 274 276 277 278 280 281 281 280 279 278 277 277 277 277 277 278 279 279 279 280 280 280 281 282 283 284 284 284 285 286 286 287 287 288 289 289 289 289 289 290 291 292 292 293 293 293 293 292 292 292
261 261 264 267 269 268 266 265 264 262 260 260 258 253 247 242 240 241 243 245 246 248 251 254 257 257 258 258 259 261 263 265 268 270 272 274 275 276 277 279 280 282 281 281 280 280 279 279 278 278 278 278 279 279 280 280 281 282 282 283 283 284 286 287 288 288 289 289 289 289 289 289 290 292 293 294 294 294 294 293 292 292 292 292 291
261 261 263 264 265 265 265 265 265 266 266 266 263 257 249 244 242 241 243 246 249 252 255 259 261 262 261 261 260 261 263 265 268 270 272 273 274 275 276 278 279 281 281 281 281 281 281 280 280 279 279 279 278 279 279 281 282 283 284 284 285 286 287 288 289 290 290 290 290 291 292 293 294 295 295 295 294 293 293 292 291 291 290 290 290
260 260 261 263 264 264 262 261 262 263 262 261 260 259 256 253 253 254 256 258 260 263 265 266 266 266 266 265 264 264 265 266 268 270 272 272 273 273 275 276 277 279 280 281 282 282 281 281 280 280 279 279 279 280 281 282 283 284 285 286 287 287 288 288 289 289 290 290 291 292 293 294 295 294 294 293 292 292 291 291 290 289 289 289 288
257 257 257 258 260 261 260 259 258 258 257 255 254 255 256 258 260 262 264 265 267 269 270 271 271 270 269 269 268 268 268 269 270 270 270 269 270 271 272 273 275 276 278 279 280 280 280 280 279 279 279 280 281 281 282 283 284 285 286 287 287 288 288 288 289 289 289 290 291 292 293 293 293 293 293 292 292 291 291 290 289 289 289 288 287
255 254 254 254 254 255 256 255 255 256 256 254 253 252 253 254 256 259 261 264 267 269 270 271 270 269 269 268 268 268 268 268 267 266 266 267 268 268 269 271 273 274 276 277 278 279 279 279 279 279 279 280 281 283 284 286 287 287 288 288 288 288 288 288 289 289 290 290 291 292 292 292 292 292 292 291 291 291 291 290 290 290 290 289 288
258 256 253 252 250 250 250 250 250 252 254 255 254 252 250 249 251 255 260 265 268 269 269 267 265 265 265 265 265 265 265 264 264 264 265 266 267 269 270 271 272 273 274 276 277 278 279 279 279 279 280 282 284 286 288 288 288 289 290 290 290 290 289 289 289 290 290 291 291 292 292 292 292 292 292 292 293 295 295 295 294 294 293 292 290
259 257 255 252 249 247 247 246 245 245 247 251 253 253 251 249 250 253 257 262 266 267 265 263 263 265 267 268 267 264 263 263 263 263 264 266 269 271 272 272 272 273 275 276 277 278 278 278 279 281 283 285 286 287 287 287 288 290 292 292 292 291 291 291 292 292 293 293 293 294 294 294 295 295 296 297 297 298 298 298 297 296 295 293 292
258 256 255 253 250 247 245 245 243 241 240 242 245 248 249 249 249 251 255 259 262 262 261 262 265 267 269 271 269 264 261 262 263 264 265 268 270 271 272 273 275 277 277 277 278 278 278 278 280 282 284 285 287 288 288 289 290 292 293 293 294 294 295 294 294 295 295 295 296 297 298 298 299 299 299 299 300 300 300 299 298 296 295 294 294
257 255 253 252 251 249 247 245 244 243 242 241 242 243 244 245 245 247 251 254 256 256 258 261 267 269 271 273 272 266 262 263 265 267 267 268 269 272 275 277 278 278 277 277 278 278 277 278 278 280 282 285 288 292 293 293 294 295 296 296 296 296 296 296 296 297 298 299 300 301 301 301 301 301 301 301 301 301 300 299 297 295 294 294 295
257 255 253 251 250 250 248 246 244 243 243 244 245 246 245 244 242 243 247 250 251 253 259 264 269 271 273 274 272 267 264 264 265 266 266 267 270 274 277 278 278 276 277 278 278 277 276 276 277 279 282 286 290 292 293 294 295 295 295 295 295 296 297 298 299 300 301 302 302 302 302 302 302 302 302 302 302 301 301 299 297 296 296 298 300
257 256 254 252 250 248 247 246 243 241 240 242 244 245 246 246 246 249 251 252 251 255 260 265 268 270 273 274 271 267 266 266 266 265 266 269 272 275 277 279 280 281 281 281 279 277 275 275 277 280 283 286 290 292 293 294 294 293 294 295 297 299 300 301 303 303 304 304 304 304 304 304 304 304 305 304 303 303 304 303 303 302 304 306 307
259 257 256 253 250 247 245 244 242 239 238 239 242 244 244 246 249 250 250 248 249 254 260 263 266 269 271 272 269 266 265 265 264 264 267 270 273 276 279 283 286 288 285 278 274 272 271 273 277 281 284 287 290 292 293 293 293 295 297 299 300 301 303 304 305 307 307 308 308 308 308 308 308 308 308 306 305 308 312 315 315 314 313 313 311
259 258 256 254 251 248 245 243 241 239 237 238 242 244 245 246 247 248 248 247 249 254 258 262 266 268 270 268 265 262 260 259 260 265 269 272 275 279 282 286 290 289 278 263 259 262 267 272 278 282 285 288 290 291 293 294 297 299 300 301 304 305 306 308 310 312 313 315 315 315 314 314 315 314 311 309 310 317 324 326 325 323 321 318 314
260 258 255 253 250 247 245 243 242 239 237 238 240 242 243 244 244 244 245 246 248 253 257 261 265 267 267 265 262 259 256 255 260 266 270 272 275 277 279 283 286 280 263 253 258 265 269 275 280 282 285 288 289 292 295 297 299 300 301 304 306 308 310 314 318 320 322 322 320 319 318 319 319 318 315 312 313 320 324 325 324 323 322 319 315
260 258 255 252 249 246 243 242 242 240 239 238 237 237 239 242 243 243 245 246 249 252 256 259 263 264 263 262 261 259 258 260 264 266 267 269 272 269 267 271 274 268 259 259 266 270 273 277 280 280 283 287 291 294 297 297 298 301 305 308 310 314 320 325 327 327 327 326 323 321 320 321 322 322 319 315 312 313 317 319 320 321 320 319 317
259 256 253 250 247 244 240 237 238 239 239 237 236 236 237 239 242 244 247 249 250 252 255 259 261 259 257 258 257 256 257 260 261 259 260 263 263 260 260 264 264 259 255 260 267 273 277 277 276 277 283 288 293 296 296 296 300 305 310 314 318 326 332 333 332 331 331 329 326 323 321 321 323 325 324 320 314 313 316 319 321 322 321 321 320
265 259 254 249 245 241 237 232 232 234 236 236 237 237 236 238 240 243 245 247 248 251 253 255 253 251 251 253 253 252 252 252 250 250 251 252 252 254 255 255 252 249 251 259 268 273 275 271 270 277 286 291 294 294 294 299 306 312 316 322 330 336 337 336 335 335 334 331 327 323 321 322 324 325 323 318 315 317 320 322 322 323 324 324 325
274 261 255 250 242 238 234 228 226 227 230 232 234 234 234 235 237 239 241 243 244 246 248 248 246 246 248 248 247 247 246 243 240 239 239 239 242 246 245 243 245 250 256 262 266 266 265 263 270 282 288 290 291 292 297 306 313 318 326 335 341 342 339 337 338 339 338 335 331 326 323 322 323 323 320 316 315 318 323 325 325 326 327 327 329
275 253 247 244 237 232 229 223 218 219 223 226 227 228 229 230 231 234 236 237 238 241 242 241 241 243 244 241 240 244 244 234 222 220 224 227 232 237 241 245 252 256 259 260 258 253 254 263 277 284 285 286 290 299 310 316 320 328 339 346 348 346 342 340 342 344 343 341 336 332 327 325 324 324 323 321 321 323 327 330 331 329 326 328 333
300 252 234 228 223 221 221 215 209 209 213 216 219 221 222 223 226 227 228 230 234 235 235 234 237 240 239 232 228 231 230 215 203 211 224 226 229 238 246 252 255 256 254 249 243 240 253 268 273 274 276 284 301 318 324 326 332 343 351 352 351 349 345 343 345 347 348 346 342 338 334 331 330 330 329 327 328 329 331 334 332 327 328 334 337
31 21 195 189 190 198 201 198 196 199 203 206 210 213 214 218 223 224 223 228 232 231 232 237 236 229 221 214 211 213 213 207 208 220 230 233 238 246 250 249 247 243 238 232 231 242 255 257 256 260 274 301 327 337 337 337 345 354 358 357 354 352 349 347 347 349 352 350 347 343 341 338 335 334 332 331 330 332 335 335 333 333 339 342 339
55 64 92 118 136 157 170 176 180 186 191 195 201 206 210 216 220 219 220 225 228 231 239 240 228 209 197 196 200 202 202 205 213 224 233 240 245 248 244 236 231 227 223 225 235 243 243 240 240 250 285 332 349 348 347 350 356 1 3 2 359 355 353 351 350 351 354 354 351 349 347 343 339 338 337 335 334 336 338 336 337 344 348 345 339
62 70 81 92 108 126 142 154 165 173 178 184 192 198 203 207 209 210 216 221 224 231 237 228 206 189 187 192 195 196 199 207 216 224 229 235 240 239 233 225 219 216 217 224 231 233 230 228 234 251 312 356 358 353 356 2 5 6 7 7 3 358 356 355 353 352 355 358 357 355 353 351 348 347 345 342 340 341 340 338 342 348 348 343 340
58 70 82 91 102 116 131 144 154 163 171 178 183 190 197 200 201 206 212 215 217 224 222 199 178 177 184 186 188 195 205 211 215 216 219 225 230 228 223 216 210 209 215 221 224 224 224 228 240 264 338 0 358 358 4 9 9 8 8 7 5 2 360 359 357 356 357 359 0 0 359 358 357 355 353 349 346 344 342 340 343 345 344 342 343
53 60 71 85 97 109 123 136 148 157 166 173 181 192 198 196 193 198 206 210 213 214 202 181 173 180 184 184 189 199 203 204 206 208 213 219 220 216 211 205 201 206 214 218 219 221 225 239 260 292 343 354 356 359 5 9 11 9 5 3 4 4 3 2 1 1 0 1 2 3 3 3 3 1 359 355 350 345 340 338 339 340 340 340 343
61 62 64 72 86 100 111 120 129 137 147 159 171 183 186 189 193 200 203 200 195 187 177 171 174 181 183 184 190 193 193 195 201 208 213 214 211 206 203 199 198 206 213 216 218 223 232 248 272 312 342 347 351 356 2 8 12 9 3 360 0 3 4 4 4 4 3 3 3 4 4 5 6 5 3 360 355 350 345 340 337 337 337 338 341
65 69 70 72 78 86 95 102 109 116 126 137 143 146 156 168 177 179 173 168 164 162 159 162 169 175 176 179 183 183 185 194 203 208 212 211 206 203 201 197 200 209 214 214 217 227 240 257 293 329 336 339 346 354 359 4 8 6 1 358 356 358 1 5 7 6 5 4 5 6 6 6 7 7 6 3 360 355 351 346 340 337 335 334 337
62 66 71 74 78 81 84 88 94 101 107 114 120 125 132 139 144 146 146 147 148 148 151 156 164 167 170 173 176 180 189 199 203 204 207 206 202 200 199 200 205 213 216 216 224 239 257 293 329 335 333 337 346 352 354 358 2 2 359 357 354 354 357 3 7 9 7 5 5 7 7 7 8 8 7 6 3 0 357 354 348 343 340 337 335
61 63 67 73 78 83 85 87 91 96 101 106 112 117 122 125 128 130 132 137 142 148 153 159 163 165 167 170 175 185 194 198 196 195 198 200 199 198 199 204 212 219 223 230 249 271 306 334 340 340 340 343 348 349 350 353 356 356 355 355 354 352 354 359 5 7 7 6 6 7 7 7 9 10 9 7 6 3 1 359 357 354 353 350 343
60 62 64 68 75 83 89 93 96 101 106 112 116 119 122 125 127 130 135 141 145 150 155 159 161 163 167 172 181 191 195 192 187 186 189 193 196 197 201 208 217 226 238 260 287 312 331 340 342 344 346 348 348 348 349 350 350 350 349 350 352 353 355 357 0 3 5 5 7 7 7 7 9 11 11 9 7 5 4 4 3 1 0 360 355
Height
3119 3120 3119 3120 3120 3120 3120 3120 3121 3122 3124 3125 3127 3128 3129 3131 3133 3133 3133 3134 3134 3134 3134 3135 3135 3135 3135 3136 3136 3137 3137 3137 3138 3138 3138 3138 3138 3138 3138 3138 3138 3138 3138 3138 3138 3137 3137 3137 3137 3136 3137 3137 3137 3137 3137 3137 3137 3137 3137 3137 3137 3137 3137 3136 3136 3136 3136 3136 3136 3136 3136 3136 3136 3136 3136 3135 3135 3135 3135 3134 3134 3134 3133 3133 3133
3116 3117 3117 3118 3119 3119 3119 3119 3119 3120 3121 3123 3125 3126 3127 3129 3131 3132 3132 3132 3132 3132 3133 3134 3134 3135 3135 3135 3135 3135 3135 3136 3136 3136 3136 3136 3136 3136 3136 3136 3137 3137 3137 3137 3137 3137 3137 3137 3136 3136 3136 3136 3136 3136 3137 3137 3137 3137 3137 3137 3137 3137 3136 3136 3136 3135 3135 3135 3135 3135 3135 3135 3135 3135 3135 3134 3134 3133 3133 3132 3132 3132 3131 3131 3130
3115 3115 3116 3116 3117 3118 3118 3117 3117 3118 3119 3121 3123 3124 3125 3126 3128 3129 3130 3130 3130 3131 3132 3133 3134 3134 3134 3135 3134 3134 3134 3134 3134 3134 3135 3135 3135 3134 3134 3135 3135 3135 3135 3135 3136 3136 3136 3136 3136 3136 3135 3135 3135 3135 3135 3136 3136 3136 3136 3136 3136 3136 3136 3136 3135 3135 3134 3134 3134 3134 3134 3134 3134 3133 3133 3133 3132 3132 3131 3130 3130 3129 3129 3128 3128
3113 3114 3114 3114 3115 3116 3116 3115 3115 3116 3117 3118 3120 3122 3123 3124 3125 3126 3127 3128 3128 3129 3130 3131 3132 3132 3133 3133 3133 3133 3133 3132 3132 3132 3132 3133 3133 3133 3133 3133 3133 3133 3133 3134 3134 3134 3134 3135 3135 3135 3134 3134 3134 3134 3134 3134 3134 3135 3135 3135 3135 3135 3135 3135 3134 3134 3134 3133 3132 3132 3132 3132 3132 3132 3131 3131 3130 3130 3129 3129 3128 3127 3127 3126 3125
3112 3112 3112 3112 3112 3113 3113 3113 3113 3114 3115 3117 3118 3120 3121 3122 3123 3124 3124 3124 3126 3127 3128 3128 3129 3130 3130 3130 3131 3131 3132 3131 3130 3130 3129 3130 3131 3132 3132 3132 3132 3131 3132 3132 3132 3132 3132 3132 3133 3133 3133 3133 3132 3132 3132 3132 3132 3132 3133 3133 3133 3133 3133 3133 3132 3132 3132 3131 3131 3130 3130 3130 3129 3129 3129 3129 3128 3127 3127 3126 3126 3125 3125 3124 3122
3110 3110 3110 3110 3110 3110 3110 3111 3111 3113 3114 3115 3117 3118 3119 3120 3121 3121 3121 3121 3124 3125 3126 3126 3126 3126 3127 3128 3129 3129 3130 3130 3129 3129 3128 3128 3128 3129 3130 3130 3130 3130 3130 3130 3130 3130 3130 3130 3130 3130 3131 3131 3130 3130 3130 3130 3130 3130 3130 3130 3130 3130 3130 3130 3130 3130 3129 3129 3129 3128 3128 3127 3126 3126 3126 3126 3126 3126 3125 3124 3123 3122 3122 3121 3120
3108 3108 3109 3108 3108 3108 3108 3109 3110 3111 3112 3113 3115 3116 3117 3117 3118 3119 3119 3120 3122 3123 3123 3124 3124 3124 3125 3126 3127 3127 3127 3127 3127 3127 3127 3126 3126 3127 3127 3128 3128 3128 3128 3128 3128 3128 3129 3129 3129 3128 3128 3128 3128 3128 3128 3127 3127 3127 3127 3127 3128 3128 3127 3127 3127 3127 3127 3126 3126 3125 3124 3124 3123 3123 3122 3122 3122 3122 3122 3122 3121 3120 3119 3118 3117
3106 3106 3107 3107 3107 3107 3107 3108 3109 3109 3110 3111 3112 3113 3114 3115 3116 3117 3117 3118 3119 3119 3120 3120 3121 3123 3124 3124 3124 3124 3124 3125 3125 3125 3126 3125 3125 3125 3125 3126 3126 3126 3126 3126 3126 3127 3127 3127 3127 3127 3127 3126 3126 3126 3125 3125 3124 3124 3124 3124 3125 3124 3124 3124 3124 3124 3124 3123 3123 3122 3121 3120 3120 3120 3119 3119 3118 3117 3117 3117 3117 3117 3116 3115 3114
3104 3104 3104 3105 3105 3106 3106 3107 3107 3108 3108 3108 3109 3110 3111 3112 3113 3115 3115 3116 3116 3116 3116 3117 3119 3121 3122 3121 3121 3121 3122 3123 3123 3123 3123 3123 3123 3123 3123 3124 3124 3124 3124 3124 3124 3124 3125 3125 3125 3125 3125 3124 3124 3124 3123 3122 3121 3121 3121 3121 3121 3121 3121 3121 3121 3121 3120 3120 3119 3118 3118 3117 3116 3116 3116 3115 3114 3113 3113 3112 3112 3112 3112 3112 3111
3102 3102 3102 3103 3103 3104 3104 3105 3105 3106 3106 3106 3107 3107 3108 3109 3110 3112 3112 3112 3113 3113 3114 3115 3116 3117 3118 3118 3118 3119 3120 3121 3120 3120 3120 3121 3121 3121 3121 3122 3121 3121 3121 3122 3122 3122 3122 3122 3122 3122 3122 3122 3122 3121 3120 3120 3119 3118 3118 3117 3117 3116 3116 3116 3116 3116 3117 3116 3116 3115 3114 3114 3113 3112 3112 3111 3110 3109 3108 3107 3107 3106 3106 3106 3107
3100 3100 3100 3100 3101 3102 3102 3102 3103 3104 3104 3104 3104 3105 3105 3106 3107 3108 3109 3109 3110 3111 3112 3112 3113 3113 3114 3115 3115 3116 3117 3117 3117 3117 3117 3118 3118 3119 3119 3119 3119 3119 3119 3119 3119 3119 3120 3120 3119 3119 3119 3119 3119 3118 3118 3117 3117 3116 3115 3114 3113 3112 3112 3111 3111 3111 3111 3112 3112 3111 3110 3110 3109 3108 3107 3107 3105 3104 3103 3102 3101 3101 3101 3100 3101
3098 3099 3099 3099 3099 3100 3100 3100 3101 3101 3102 3102 3102 3102 3103 3103 3104 3105 3106 3107 3108 3109 3109 3109 3110 3110 3111 3112 3113 3113 3114 3114 3114 3114 3114 3114 3115 3116 3116 3116 3116 3116 3116 3116 3117 3117 3117 3117 3116 3116 3116 3116 3116 3115 3115 3114 3113 3112 3111 3110 3110 3109 3108 3107 3106 3106 3106 3107 3107 3107 3106 3105 3105 3104 3103 3102 3101 3099 3098 3097 3096 3095 3095 3094 3094
3095 3096 3097 3097 3098 3098 3099 3099 3099 3099 3099 3100 3100 3101 3101 3102 3102 3103 3104 3104 3105 3106 3107 3107 3107 3108 3108 3109 3110 3111 3111 3111 3111 3111 3111 3112 3112 3112 3113 3113 3113 3113 3113 3113 3114 3114 3114 3114 3113 3113 3113 3113 3113 3112 3112 3111 3110 3109 3108 3107 3106 3106 3105 3103 3102 3102 3102 3103 3102 3101 3101 3101 3100 3099 3098 3097 3096 3095 3094 3093 3092 3090 3090 3089 3088
3092 3093 3094 3094 3095 3096 3096 3097 3097 3097 3097 3098 3098 3099 3099 3100 3100 3101 3101 3102 3103 3103 3104 3105 3105 3106 3106 3107 3108 3108 3108 3109 3109 3109 3109 3109 3109 3109 3110 3110 3110 3110 3110 3110 3110 3110 3110 3110 3110 3110 3110 3110 3109 3109 3108 3107 3106 3106 3105 3104 3103 3102 3101 3099 3098 3097 3098 3098 3097 3096 3096 3095 3095 3094 3093 3092 3091 3090 3089 3089 3088 3086 3085 3084 3084
3089 3089 3090 3091 3092 3093 3094 3094 3095 3095 3095 3096 3096 3097 3097 3098 3098 3098 3099 3099 3100 3101 3102 3103 3103 3104 3104 3105 3105 3106 3106 3106 3106 3106 3106 3106 3106 3106 3106 3107 3107 3107 3107 3107 3107 3107 3107 3107 3106 3106 3106 3105 3105 3105 3104 3103 3103 3102 3101 3100 3099 3098 3097 3096 3095 3094 3093 3093 3092 3091 3091 3090 3089 3088 3087 3086 3085 3085 3084 3083 3082 3081 3080 3079 3079
3086 3086 3086 3087 3088 3089 3090 3091 3091 3092 3093 3093 3094 3094 3095 3095 3095 3096 3096 3097 3097 3098 3099 3100 3100 3101 3102 3102 3102 3103 3103 3103 3103 3103 3103 3103 3103 3103 3103 3104 3104 3104 3104 3104 3104 3104 3104 3103 3103 3103 3102 3102 3101 3101 3100 3100 3099 3098 3097 3096 3095 3094 3093 3093 3092 3091 3089 3088 3088 3087 3086 3085 3084 3083 3082 3081 3080 3079 3078 3077 3076 3075 3073 3073 3073
3083 3083 3083 3084 3085 3085 3086 3087 3087 3088 3089 3090 3091 3092 3092 3092 3093 3093 3093 3094 3095 3096 3096 3097 3097 3098 3098 3099 3099 3100 3100 3100 3101 3101 3101 3101 3101 3100 3101 3101 3101 3101 3101 3101 3101 3100 3100 3100 3100 3099 3099 3098 3098 3097 3096 3096 3095 3094 3093 3092 3091 3091 3090 3089 3089 3087 3086 3085 3084 3083 3082 3081 3080 3079 3077 3076 3074 3073 3071 3070 3069 3068 3067 3066 3066
3080 3080 3080 3080 3081 3082 3083 3084 3084 3085 3086 3087 3088 3089 3089 3089 3090 3090 3091 3091 3092 3093 3094 3094 3095 3095 3096 3097 3097 3098 3098 3098 3098 3098 3098 3098 3098 3098 3098 3098 3098 3098 3098 3098 3098 3097 3097 3097 3096 3096 3095 3095 3094 3094 3093 3092 3092 3091 3090 3089 3088 3087 3086 3085 3085 3083 3082 3081 3080 3079 3078 3077 3075 3074 3073 3071 3069 3068 3066 3064 3063 3061 3060 3059 3058
3077 3077 3077 3077 3079 3080 3080 3081 3082 3082 3083 3084 3085 3085 3086 3086 3087 3088 3088 3089 3090 3091 3091 3092 3092 3093 3094 3094 3095 3095 3096 3096 3096 3096 3096 3096 3095 3095 3095 3095 3095 3095 3095 3095 3095 3094 3094 3094 3093 3093 3092 3092 3091 3090 3089 3089 3088 3087 3086 3085 3084 3083 3082 3081 3080 3079 3078 3077 3076 3075 3073 3072 3070 3069 3067 3066 3064 3062 3060 3058 3056 3055 3053 3052 3051
3073 3074 3074 3075 3076 3077 3078 3078 3079 3080 3080 3081 3082 3082 3083 3083 3084 3084 3085 3086 3087 3088 3088 3089 3090 3091 3091 3092 3092 3093 3093 3093 3093 3093 3093 3093 3092 3092 3092 3092 3091 3091 3091 3091 3091 3091 3091 3090 3090 3089 3089 3088 3088 3087 3086 3085 3084 3083 3082 3081 3080 3079 3078 3077 3076 3075 3074 3073 3072 3070 3069 3067 3065 3064 3062 3060 3059 3057 3055 3053 3051 3049 3047 3046 3045
3069 3070 3070 3071 3073 3074 3074 3075 3076 3076 3077 3078 3079 3079 3079 3080 3081 3081 3082 3084 3084 3085 3085 3086 3086 3087 3088 3088 3089 3089 3090 3090 3090 3090 3090 3090 3089 3089 3088 3088 3088 3087 3087 3087 3087 3087 3086 3086 3086 3085 3085 3084 3083 3082 3081 3080 3079 3078 3078 3076 3075 3074 3073 3072 3071 3070 3069 3068 3066 3065 3064 3062 3060 3059 3057 3055 3054 3052 3050 3048 3046 3044 3042 3040 3038
3065 3065 3066 3067 3068 3069 3070 3071 3071 3072 3072 3073 3074 3074 3074 3076 3077 3078 3079 3080 3081 3081 3082 3082 3083 3084 3084 3085 3085 3086 3086 3087 3087 3087 3087 3086 3086 3085 3085 3084 3084 3083 3083 3083 3083 3083 3082 3082 3081 3081 3080 3079 3078 3077 3076 3075 3074 3073 3073 3071 3070 3069 3068 3067 3066 3064 3063 3062 3060 3059 3058 3056 3055 3053 3052 3050 3048 3046 3045 3043 3041 3039 3037 3035 3032
3059 3060 3061 3062 3063 3064 3065 3065 3066 3067 3067 3068 3068 3069 3070 3071 3072 3073 3074 3075 3076 3077 3078 3078 3079 3080 3080 3081 3081 3082 3082 3082 3083 3083 3083 3082 3082 3081 3081 3080 3080 3079 3079 3079 3078 3078 3078 3077 3077 3076 3075 3075 3074 3072 3071 3070 3069 3068 3067 3066 3065 3064 3063 3061 3060 3059 3057 3056 3054 3053 3052 3050 3049 3047 3046 3044 3042 3041 3039 3037 3036 3034 3031 3029 3027
3053 3054 3055 3056 3057 3058 3059 3060 3061 3061 3062 3063 3064 3064 3066 3067 3068 3069 3070 3071 3071 3072 3073 3074 3075 3075 3076 3076 3077 3077 3077 3078 3078 3078 3078 3078 3078 3077 3077 3076 3076 3075 3075 3074 3074 3073 3073 3072 3072 3071 3070 3069 3069 3068 3067 3066 3064 3063 3062 3061 3060 3059 3058 3056 3055 3053 3052 3050 3049 3047 3046 3045 3043 3041 3039 3038 3036 3035 3033 3031 3029 3028 3026 3024 3022
3046 3047 3048 3049 3050 3051 3053 3054 3056 3056 3057 3058 3059 3060 3061 3062 3063 3064 3065 3066 3067 3068 3068 3069 3070 3070 3071 3071 3072 3072 3072 3073 3073 3073 3073 3073 3073 3073 3073 3072 3072 3071 3070 3070 3069 3068 3068 3067 3067 3066 3065 3065 3064 3063 3062 3061 3060 3059 3058 3057 3055 3054 3053 3051 3050 3048 3047 3045 3044 3042 3041 3039 3037 3035 3033 3031 3030 3028 3026 3024 3023 3021 3019 3017 3015
3039 3040 3042 3043 3044 3045 3046 3048 3050 3051 3052 3053 3054 3056 3057 3058 3059 3060 3061 3062 3063 3063 3064 3064 3065 3066 3066 3067 3067 3067 3067 3067 3068 3068 3068 3068 3069 3069 3068 3068 3068 3067 3066 3065 3065 3064 3063 3062 3062 3061 3060 3060 3059 3058 3057 3057 3056 3055 3053 3052 3051 3049 3048 3046 3045 3043 3042 3040 3039 3037 3035 3033 3032 3030 3028 3026 3024 3022 3019 3017 3016 3014 3012 3010 3008
3031 3032 3034 3036 3037 3039 3040 3042 3044 3045 3046 3048 3049 3050 3052 3053 3054 3055 3056 3057 3058 3059 3059 3060 3060 3061 3062 3062 3063 3063 3063 3063 3063 3063 3063 3064 3064 3064 3064 3064 3064 3063 3062 3062 3061 3060 3059 3058 3057 3057 3056 3055 3055 3054 3054 3053 3051 3050 3049 3048 3046 3045 3043 3042 3040 3039 3037 3035 3034 3032 3030 3028 3026 3024 3022 3020 3017 3015 3013 3010 3007 3006 3004 3002 3000
3023 3024 3026 3028 3030 3032 3033 3035 3037 3039 3040 3041 3043 3044 3046 3047 3049 3050 3051 3053 3054 3054 3055 3055 3056 3056 3057 3058 3058 3058 3058 3058 3058 3059 3059 3059 3059 3059 3059 3059 3059 3059 3058 3057 3056 3056 3055 3054 3053 3053 3052 3052 3051 3051 3050 3049 3047 3046 3045 3044 3042 3041 3039 3038 3036 3034 3032 3030 3028 3026 3024 3022 3020 3018 3015 3013 3011 3009 3006 3003 3000 2998 2996 2993 2991
3015 3016 3018 3019 3021 3024 3026 3028 3030 3032 3033 3035 3036 3038 3039 3041 3043 3044 3046 3047 3049 3049 3050 3051 3051 3052 3052 3053 3054 3054 3054 3054 3054 3054 3054 3055 3055 3055 3055 3055 3055 3054 3054 3053 3052 3052 3051 3050 3050 3049 3049 3048 3047 3047 3046 3045 3044 3043 3042 3040 3039 3037 3035 3034 3032 3030 3028 3026 3023 3021 3019 3016 3014 3012 3009 3007 3005 3003 3000 2997 2994 2991 2988 2986 2984
3006 3008 3010 3012 3013 3016 3018 3020 3022 3025 3026 3028 3030 3031 3033 3035 3036 3038 3040 3042 3043 3044 3045 3046 3046 3047 3048 3049 3049 3050 3050 3049 3049 3050 3050 3051 3051 3051 3051 3051 3051 3050 3049 3049 3048 3047 3047 3047 3046 3046 3046 3045 3044 3043 3043 3042 3041 3040 3038 3037 3035 3033 3032 3030 3028 3026 3024 3021 3019 3016 3013 3010 3008 3006 3003 3001 2999 2997 2994 2991 2988 2985 2983 2981 2979
2997 2999 3002 3004 3006 3008 3010 3013 3015 3017 3020 3022 3023 3025 3027 3029 3030 3032 3034 3036 3037 3038 3039 3041 3041 3042 3043 3044 3045 3045 3045 3045 3045 3046 3046 3047 3047 3047 3046 3046 3046 3046 3045 3044 3044 3044 3043 3043 3043 3043 3042 3042 3041 3040 3040 3039 3038 3036 3035 3033 3031 3030 3028 3026 3024 3021 3019 3017 3014 3011 3008 3005 3003 3000 2998 2995 2993 2991 2989 2987 2984 2981 2978 2977 2975
2988 2991 2994 2996 2999 3001 3003 3005 3008 3011 3013 3015 3017 3019 3021 3023 3025 3027 3029 3031 3032 3034 3035 3036 3037 3038 3038 3040 3040 3040 3040 3041 3041 3042 3042 3043 3043 3043 3042 3042 3041 3041 3040 3040 3040 3040 3040 3040 3040 3039 3039 3039 3038 3038 3037 3036 3034 3033 3032 3030 3029 3026 3024 3022 3020 3017 3015 3012 3009 3007 3004 3001 2998 2995 2993 2990 2988 2986 2984 2982 2980 2978 2976 2974 2972
2980 2982 2985 2987 2990 2993 2995 2998 3000 3003 3006 3009 3011 3013 3015 3018 3020 3023 3025 3026 3028 3029 3031 3032 3033 3033 3034 3035 3036 3036 3036 3037 3037 3038 3038 3039 3039 3039 3039 3038 3038 3037 3037 3037 3037 3037 3037 3037 3037 3037 3036 3036 3036 3035 3034 3033 3032 3030 3029 3027 3026 3023 3021 3018 3016 3013 3010 3007 3004 3002 2999 2996 2993 2990 2988 2986 2984 2983 2981 2979 2977 2975 2973 2972 2970
2972 2974 2976 2978 2981 2984 2987 2990 2993 2996 2999 3002 3005 3007 3010 3013 3015 3017 3019 3021 3024 3025 3027 3028 3028 3029 3030 3031 3032 3032 3033 3033 3034 3035 3035 3036 3036 3036 3035 3035 3035 3035 3035 3034 3035 3035 3035 3035 3034 3034 3034 3034 3033 3032 3031 3030 3029 3028 3026 3024 3022 3020 3018 3015 3012 3010 3007 3003 3000 2997 2994 2991 2989 2986 2984 2983 2981 2980 2978 2977 2975 2973 2971 2969 2967
2964 2965 2967 2970 2972 2975 2979 2982 2985 2989 2993 2996 2999 3002 3005 3008 3010 3012 3015 3017 3019 3021 3022 3023 3024 3025 3026 3027 3028 3029 3030 3030 3031 3032 3032 3033 3033 3033 3033 3033 3033 3033 3033 3032 3032 3033 3033 3033 3032 3032 3032 3031 3031 3030 3029 3028 3026 3025 3023 3022 3020 3017 3015 3012 3009 3006 3003 2999 2996 2993 2990 2988 2985 2983 2982 2980 2979 2977 2976 2974 2973 2971 2969 2967 2965
2956 2957 2959 2961 2964 2967 2971 2975 2978 2982 2986 2990 2994 2997 3000 3003 3005 3008 3010 3013 3015 3016 3018 3019 3020 3021 3022 3023 3024 3026 3027 3027 3028 3029 3029 3030 3030 3030 3030 3030 3030 3031 3031 3031 3031 3031 3031 3030 3030 3030 3030 3029 3028 3028 3027 3026 3024 3023 3021 3019 3017 3014 3011 3008 3005 3002 2999 2996 2993 2990 2987 2985 2983 2981 2979 2978 2976 2975 2973 2972 2970 2968 2966 2964 2962
2949 2949 2950 2953 2956 2959 2963 2968 2971 2975 2980 2984 2988 2991 2995 2998 3001 3004 3006 3008 3010 3012 3013 3015 3016 3017 3018 3020 3021 3022 3023 3024 3025 3026 3026 3027 3027 3028 3028 3028 3028 3028 3028 3029 3029 3029 3029 3028 3028 3028 3028 3027 3026 3026 3025 3024 3022 3021 3019 3016 3014 3011 3008 3005 3002 2999 2996 2993 2990 2988 2985 2983 2981 2979 2977 2975 2974 2972 2971 2969 2967 2966 2964 2961 2959
2943 2943 2944 2946 2948 2951 2956 2960 2965 2969 2974 2978 2982 2986 2990 2993 2996 2999 3001 3003 3005 3007 3009 3011 3012 3013 3015 3017 3018 3019 3020 3021 3022 3022 3023 3024 3025 3025 3025 3025 3025 3026 3026 3027 3027 3027 3027 3027 3026 3026 3026 3025 3025 3024 3023 3022 3020 3019 3017 3014 3011 3008 3005 3003 3000 2997 2994 2991 2988 2985 2983 2981 2978 2976 2974 2972 2971 2970 2968 2967 2965 2963 2961 2959 2958
2939 2939 2940 2941 2943 2946 2950 2954 2959 2964 2969 2973 2977 2981 2985 2989 2992 2995 2997 2999 3001 3003 3005 3007 3008 3010 3012 3013 3014 3016 3016 3017 3019 3020 3020 3021 3022 3023 3023 3023 3024 3024 3024 3025 3025 3025 3025 3025 3025 3025 3024 3024 3023 3022 3021 3020 3018 3017 3015 3012 3009 3006 3004 3001 2999 2996 2992 2989 2986 2983 2981 2978 2976 2974 2972 2970 2969 2967 2966 2964 2962 2961 2959 2958 2956
2936 2936 2937 2937 2939 2943 2946 2950 2955 2960 2965 2969 2974 2978 2982 2985 2988 2991 2993 2995 2997 3000 3002 3003 3005 3006 3008 3010 3011 3013 3014 3015 3016 3017 3018 3019 3020 3021 3021 3022 3022 3022 3022 3023 3023 3023 3023 3023 3023 3023 3023 3022 3022 3021 3019 3018 3017 3015 3012 3009 3006 3004 3002 3000 2997 2994 2990 2987 2984 2982 2979 2976 2974 2972 2971 2969 2967 2965 2964 2962 2961 2959 2957 2956 2954
2936 2935 2935 2936 2939 2941 2944 2948 2952 2958 2963 2967 2971 2975 2979 2982 2985 2987 2990 2992 2995 2997 2998 3000 3001 3003 3005 3007 3009 3010 3012 3013 3014 3015 3016 3017 3018 3019 3019 3020 3020 3020 3020 3021 3021 3022 3022 3022 3022 3022 3021 3021 3020 3019 3018 3016 3015 3013 3010 3007 3005 3003 3001 2998 2996 2993 2990 2986 2983 2981 2978 2975 2973 2971 2969 2967 2966 2964 2962 2961 2959 2958 2956 2955 2953
2937 2937 2937 2938 2940 2942 2945 2948 2952 2957 2962 2966 2970 2973 2977 2979 2982 2985 2988 2991 2993 2994 2996 2997 2998 3000 3001 3003 3005 3008 3010 3011 3012 3013 3014 3015 3016 3017 3017 3018 3018 3018 3019 3020 3020 3020 3021 3020 3020 3020 3020 3019 3018 3017 3016 3015 3013 3011 3008 3006 3004 3002 3000 2997 2995 2992 2989 2986 2983 2980 2977 2974 2972 2970 2968 2966 2964 2962 2961 2959 2958 2957 2955 2954 2952
2941 2940 2941 2942 2943 2944 2946 2950 2954 2958 2962 2966 2969 2972 2975 2978 2980 2984 2987 2989 2991 2992 2993 2994 2995 2997 2998 3001 3004 3006 3007 3009 3010 3012 3012 3013 3014 3015 3015 3016 3016 3017 3018 3019 3019 3019 3019 3019 3019 3019 3018 3017 3016 3016 3015 3013 3011 3009 3007 3005 3003 3001 2999 2996 2994 2992 2989 2986 2983 2980 2977 2974 2971 2969 2967 2964 2963 2961 2960 2958 2957 2956 2954 2953 2951
2945 2945 2945 2945 2946 2947 2949 2953 2956 2960 2963 2966 2969 2971 2974 2977 2979 2983 2985 2987 2989 2990 2991 2992 2994 2996 2997 3000 3002 3004 3006 3007 3009 3010 3011 3012 3013 3013 3014 3014 3015 3016 3017 3018 3018 3018 3018 3018 3018 3017 3016 3016 3015 3014 3013 3011 3010 3008 3006 3004 3002 3000 2998 2996 2993 2991 2989 2986 2983 2979 2976 2973 2970 2968 2966 2964 2962 2960 2959 2958 2957 2955 2954 2952 2950
2951 2950 2949 2949 2950 2952 2953 2956 2958 2961 2964 2966 2968 2971 2973 2976 2978 2981 2984 2986 2988 2989 2990 2991 2993 2995 2997 2999 3001 3003 3004 3006 3007 3008 3009 3010 3011 3012 3012 3013 3014 3015 3016 3016 3016 3016 3017 3017 3017 3016 3015 3014 3014 3013 3011 3010 3008 3006 3004 3003 3001 3000 2997 2995 2993 2990 2988 2985 2982 2979 2976 2973 2970 2967 2965 2963 2961 2959 2958 2957 2956 2954 2953 2951 2949
2956 2955 2955 2955 2955 2956 2958 2959 2961 2963 2965 2967 2969 2971 2973 2975 2978 2981 2983 2985 2987 2989 2990 2991 2993 2995 2996 2998 3000 3002 3003 3004 3006 3007 3008 3009 3010 3011 3011 3012 3014 3015 3015 3015 3015 3015 3016 3016 3015 3014 3014 3013 3012 3011 3010 3008 3006 3004 3003 3002 3000 2999 2997 2994 2992 2989 2987 2984 2981 2978 2975 2972 2970 2967 2965 2962 2961 2959 2958 2956 2955 2953 2952 2950 2949
2961 2961 2960 2960 2960 2961 2962 2963 2964 2966 2967 2969 2970 2971 2973 2975 2978 2981 2983 2985 2987 2988 2990 2991 2992 2994 2996 2997 2999 3001 3002 3003 3005 3006 3007 3008 3009 3010 3011 3012 3013 3013 3014 3014 3014 3015 3015 3014 3014 3013 3012 3012 3011 3010 3008 3007 3005 3003 3002 3001 2999 2998 2996 2994 2991 2989 2986 2984 2981 2978 2975 2972 2970 2967 2965 2962 2960 2958 2957 2955 2954 2952 2951 2949 2948
2967 2966 2965 2965 2965 2965 2965 2966 2967 2968 2969 2971 2972 2973 2974 2977 2979 2982 2984 2985 2987 2988 2989 2991 2992 2994 2996 2997 2999 3000 3001 3003 3004 3006 3006 3007 3008 3009 3010 3012 3012 3012 3012 3013 3013 3013 3013 3013 3012 3012 3011 3011 3010 3008 3007 3006 3004 3003 3001 3000 2998 2997 2995 2993 2991 2988 2986 2983 2981 2978 2975 2972 2969 2967 2965 2962 2960 2958 2956 2954 2953 2951 2950 2949 2947
2972 2971 2971 2970 2970 2970 2970 2970 2971 2971 2972 2973 2975 2976 2977 2979 2981 2983 2984 2986 2987 2988 2990 2991 2993 2994 2996 2997 2999 3000 3001 3003 3004 3005 3006 3007 3008 3009 3010 3011 3011 3011 3011 3012 3012 3012 3012 3011 3011 3010 3010 3010 3008 3007 3006 3005 3004 3002 3001 3000 2998 2996 2994 2992 2990 2988 2986 2983 2981 2978 2975 2973 2970 2967 2964 2962 2960 2957 2955 2953 2952 2951 2949 2948 2947
2977 2977 2976 2976 2975 2975 2975 2976 2976 2976 2977 2977 2978 2980 2981 2982 2983 2985 2986 2987 2988 2989 2990 2992 2993 2995 2996 2997 2999 3000 3001 3003 3004 3004 3005 3006 3007 3008 3009 3010 3010 3010 3011 3011 3011 3011 3011 3010 3010 3010 3009 3009 3008 3006 3005 3004 3003 3002 3001 2999 2998 2996 2994 2992 2990 2988 2986 2983 2981 2978 2976 2973 2970 2967 2965 2962 2960 2958 2955 2953 2951 2950 2948 2947 2946
2981 2980 2980 2980 2979 2979 2979 2979 2980 2980 2980 2981 2982 2982 2983 2984 2985 2986 2987 2988 2989 2990 2991 2993 2994 2995 2996 2997 2999 3000 3001 3002 3003 3004 3005 3006 3007 3008 3008 3009 3009 3009 3010 3010 3010 3010 3009 3009 3009 3009 3008 3008 3007 3006 3005 3003 3002 3001 3000 2999 2997 2996 2994 2992 2990 2988 2986 2983 2981 2979 2976 2974 2971 2968 2966 2963 2961 2958 2956 2953 2951 2950 2948 2947 2945